TimeCDT,TemperatureF,Dew PointF,Humidity,Sea Level PressureIn,VisibilityMPH,Wind Direction,Wind SpeedMPH,Gust SpeedMPH,PrecipitationIn,Events,Conditions,WindDirDegrees,DateUTC
12:52 AM,51.1,48.0,89,30.17,7.0,Calm,Calm,-,N/A,,Clear,0,2013-10-10 05:52:00
1:52 AM,50.0,46.9,89,30.18,8.0,Calm,Calm,-,N/A,,Clear,0,2013-10-10 06:52:00
2:52 AM,48.9,46.0,90,30.17,7.0,Calm,Calm,-,N/A,,Clear,0,2013-10-10 07:52:00
3:52 AM,48.9,46.0,90,30.16,8.0,Calm,Calm,-,N/A,,Clear,0,2013-10-10 08:52:00
4:52 AM,48.0,45.0,89,30.17,7.0,Calm,Calm,-,N/A,,Clear,0,2013-10-10 09:52:00
5:52 AM,46.9,44.1,90,30.17,7.0,Calm,Calm,-,N/A,,Clear,0,2013-10-10 10:52:00
6:52 AM,46.9,44.1,90,30.18,9.0,Calm,Calm,-,N/A,,Clear,0,2013-10-10 11:52:00
7:52 AM,51.1,46.0,83,30.19,7.0,Calm,Calm,-,N/A,,Clear,0,2013-10-10 12:52:00
8:52 AM,55.9,48.9,77,30.19,3.0,Calm,Calm,-,N/A,,Haze,0,2013-10-10 13:52:00
9:52 AM,63.0,52.0,67,30.19,8.0,Calm,Calm,-,N/A,,Clear,0,2013-10-10 14:52:00
10:52 AM,69.1,51.1,53,30.19,10.0,SSW,3.5,-,N/A,,Clear,210,2013-10-10 15:52:00
11:52 AM,72.0,48.0,43,30.17,10.0,SE,3.5,-,N/A,,Clear,140,2013-10-10 16:52:00
12:52 PM,73.0,48.0,41,30.15,10.0,SSW,5.8,-,N/A,,Clear,210,2013-10-10 17:52:00
1:52 PM,73.0,48.0,41,30.13,10.0,SE,5.8,-,N/A,,Clear,130,2013-10-10 18:52:00
2:52 PM,72.0,50.0,46,30.11,10.0,ENE,8.1,-,N/A,,Clear,70,2013-10-10 19:52:00
3:52 PM,72.0,48.9,44,30.10,10.0,East,5.8,-,N/A,,Clear,90,2013-10-10 20:52:00
4:52 PM,72.0,51.1,48,30.09,10.0,ESE,6.9,-,N/A,,Clear,110,2013-10-10 21:52:00
5:52 PM,69.1,52.0,54,30.08,10.0,East,4.6,-,N/A,,Clear,90,2013-10-10 22:52:00
6:52 PM,64.0,53.1,67,30.09,10.0,Calm,Calm,-,N/A,,Clear,0,2013-10-10 23:52:00
7:52 PM,60.1,53.1,78,30.09,10.0,Calm,Calm,-,N/A,,Clear,0,2013-10-11 00:52:00
8:52 PM,59.0,52.0,78,30.09,10.0,Calm,Calm,-,N/A,,Clear,0,2013-10-11 01:52:00
9:52 PM,55.9,51.1,84,30.09,8.0,Calm,Calm,-,N/A,,Clear,0,2013-10-11 02:52:00
10:52 PM,55.9,52.0,87,30.08,6.0,Calm,Calm,-,N/A,,Clear,0,2013-10-11 03:52:00
11:52 PM,55.0,51.1,86,30.07,6.0,Calm,Calm,-,N/A,,Clear,0,2013-10-11 04:52:00